Regional Weather Roundup
Issued by NWS Upton, NY

Current Version | Previous Version | Graphics & Text | Print | Product List | Glossary Off
Versions: 1 2 3 4 5 6 7 8 9 10 11 12 13 14 15 16 17 18 19 20 21 22 23 24 25 26 27 28 29 30 31 32 33 34 35 36 37 38 39 40 41 42 43 44 45 46 47 48 49 50

000
ASUS41 KOKX 200405
RWROKX

REGIONAL WEATHER ROUNDUP
NATIONAL WEATHER SERVICE NEW YORK NY
1100 PM EST FRI DEC 19 2014

NOTE: "FAIR" INDICATES FEW OR NO CLOUDS BELOW 12,000 FEET WITH NO
SIGNIFICANT WEATHER AND/OR OBSTRUCTIONS TO VISIBILITY.

NYZ071-072-176-178-NJZ106-104-200500-
NEW YORK CITY METRO AREA


CITY           SKY/WX    TMP DP  RH WIND       PRES   REMARKS
CENTRAL PARK   CLEAR     31  20  63 W6        30.19R WCI  25
LAGUARDIA APRT PTCLDY    32  22  66 NW10      30.18R WCI  24
KENNEDY INTL   MOCLDY    32  20  61 NW9       30.19R WCI  24
NEWARK/LIBERTY MOCLDY    32  21  64 NW8       30.19R WCI  25
BRNX BOT. GARD   N/A    N/A N/A N/A NW6       30.17F
TETERBORO      MOCLDY    32  21  64 NW6       30.18R WCI  26
$$

NYZ177-179-078>081-200500-
LONG ISLAND NEW YORK

CITY           SKY/WX    TMP DP  RH WIND       PRES   REMARKS
FARMINGDALE    CLEAR     32  20  61 N7        30.17R WCI  26
ISLIP          PTCLDY    31  20  63 NW8       30.14R WCI  23
SHIRLEY        CLEAR     29  20  69 NW5       30.17R WCI  24
WESTHAMPTON    CLOUDY    29  19  66 NW3       30.17R
MONTAUK POINT    N/A     35  23  61 N9        30.14R WCI  28
$$

NYZ052-065-067-200500-
HUDSON VALLEY

CITY           SKY/WX    TMP DP  RH WIND       PRES   REMARKS
WHITE PLAINS   PTCLDY    28  19  69 N10       30.14R WCI  19
NEWBURGH       PTCLDY    28  23  80 CALM      30.17
MONTGOMERY     MOCLDY    25  20  81 CALM      30.16R
POUGHKEEPSIE   PTCLDY    26  20  77 CALM      30.18R
ALBANY         CLOUDY    27  18  69 NW10      30.21R WCI  17
$$

NJZ001-105-106-008-010-013-015-019>022-104-200500-
NEW JERSEY

CITY           SKY/WX    TMP DP  RH WIND       PRES   REMARKS
NEWARK/LIBERTY MOCLDY    32  21  64 NW8       30.19R WCI  25
TETERBORO      MOCLDY    32  21  64 NW6       30.18R WCI  26
CALDWELL       CLOUDY    31  20  63 NW6       30.19R WCI  25
MORRISTOWN     CLOUDY    34  21  60 NW7       30.19R WCI  28
SOMERVILLE     CLOUDY    33  21  61 N6        30.19R WCI  28
SUSSEX         PTCLDY    29  20  69 N7        30.17R WCI  22
ANDOVER          N/A     29  20  69 N3        30.18R
TRENTON        CLOUDY    32  20  61 NW5       30.19R WCI  27
MILLVILLE      CLEAR     22  18  85 CALM      30.21R
ATLANTIC CITY  CLEAR     26  20  77 NW6       30.21R WCI  19
WRIGHTSTOWN    CLOUDY    30  21  70 NW5       30.18R WCI  25
TOMS RIVER     CLOUDY    30  21  69 NW7       30.20R WCI  23
BELMAR         MOCLDY    30  18  59 NW6       30.18R WCI  24
$$

PAZ047>061-062-071-200500-
EASTERN PENNSYLVANIA

CITY           SKY/WX    TMP DP  RH WIND       PRES   REMARKS
PHILADELPHIA   MOCLDY    34  21  59 NW5       30.22S WCI  30
ALLENTOWN      CLOUDY    33  21  61 NW12      30.19S WCI  24
SCRANTON       CLOUDY    29  21  72 N12       30.19R WCI  19
$$

CTZ002-004>006-009-010-012-RIZ004-006-007-MAZ004-011-015-200500-
SOUTHERN NEW ENGLAND
 IN CT

CITY           SKY/WX    TMP DP  RH WIND       PRES   REMARKS
BRADLEY INTL   PTCLDY    27  19  72 NW6       30.14R WCI  20
HARTFORD       CLEAR     29  20  69 NW8       30.16R WCI  21
DANBURY        CLOUDY    28  18  66 N5        30.16R WCI  23
WTRBRY/OXFORD  CLEAR     27  16  63 NW3       30.14R
BRIDGEPORT     CLEAR     30  21  69 NW8       30.17R WCI  22
MERIDEN        CLOUDY    29  19  66 NW5       30.16R WCI  24
NEW HAVEN      CLOUDY    33  20  58 N6        30.16R WCI  28
CHESTER        MOCLDY    30  21  69 NW3       30.14R
GROTON         CLOUDY    31  22  69 N5        30.14R WCI  26
WILLIMANTIC    MOCLDY    30  21  69 VRB3      30.14R

 IN RI

CITY           SKY/WX    TMP DP  RH WIND       PRES   REMARKS
PROVIDENCE     PTCLDY    30  20  66 NW5       30.13R WCI  25
BLOCK ISLAND   CLOUDY    34  21  60 N7        30.12R WCI  28
WESTERLY       CLOUDY    32  22  66 N5        30.14R WCI  27

 IN MA

CITY           SKY/WX    TMP DP  RH WIND       PRES   REMARKS
BOSTON         CLEAR     29  20  69 NW8       30.14R WCI  21
WORCESTER      CLEAR     25  19  78 N7        30.08R WCI  17
WESTFIELD      CLEAR     27  19  72 CALM      30.14R
PROVINCETOWN   CLOUDY    36  27  69 NW12      30.11S WCI  27
NANTUCKET      CLOUDY    36  25  64 N13       30.09R WCI  27
$$

ANZ330-335-338-340-345-350-353-355-200500-
COASTAL MARINE OBSERVATIONS


STATION/POSITION TIME  SKY/WX   TEMP    WIND        PRES    VSBY  WAVE
                                AIR SEA DIR/SP/G                  HT/PER
                 (UTC)          (F)     (DEG/KT/KT) (MB)    (MI)  (FT/S)
NY HARB ENTRANCE 0400            35 46  330/ 12/ 16 1022.2          2/ 4
4S FIRE IS       0400               47                N/A           2/ 4
20S FIRE ISLAND  0300            38 49              1021.2          3/ 5
23SW MTP         0400                                 N/A           2/ 5
HUDSON CANYON    0400            39 54  310/ 14/ 17 1020.4          4/ 6
EXECUTION ROCKS  0400            34 42  310/  8/ 10   N/A
WESTERN LI SOUND 0400            33     350/ 10/ 12   N/A           1
CENTRAL LI SOUND 0300            32 44  330/ 12/ 16   N/A           2/ 3
EASTERN LI SOUND NOT AVBL
ROBBINS REEF     0300            32     130/  2/  6 1020.7
$$


>>>>>>>>>>>>>>>>>>>>>>>>>>>> KEY <<<<<<<<<<<<<<<<<<<<<<<<<<<
>                                                          <
>     SKY/WX - SKY CONDITION/PRESENT WEATHER               <
>     TMP    - TEMPERATURE IN FAHRENHEIT                   <
>     DP     - DEWPOINT IN FAHRENHEIT                      <
>     RH     - RELATIVE HUMIDITY IN PERCENT                <
>     WIND   - DIRECTION AND SPEED IN MPH                  <
>     PRES   - MEAN SEA LEVEL PRESSURE IN INCHES OF HG     <
>     WCI    - WIND CHILL INDEX                            <
>     VSB    - VISIBILITY IN MILES                         <
>     HX     - HEAT INDEX                                  <
>     TC     - TEMPERATURE IN CELSIUS                      <
>     VRB    - VARIABLE WIND DIRECTION                     <
>                                                          <
>>>>>>>>>>>>>>>>>>>>>>>>>>>> KEY <<<<<<<<<<<<<<<<<<<<<<<<<<<




USA.gov is the U.S. government's official web portal to all federal, state and local government web resources and services.